Weather Roundup
Issued by NWS Springfield, MO

Home | Current Version | Previous Version | Text Only | Print | Product List | Glossary On
Versions: 1 2 3 4 5 6 7 8 9 10 11 12 13 14 15 16 17 18 19 20 21 22 23 24 25 26 27 28 29 30 31 32 33 34 35 36 37 38 39 40 41 42 43 44 45 46 47 48 49 50
000
NZUS99 KSGF 160807
HRRSGF

HOURLY WEATHER
NATIONAL WEATHER SERVICE SPRINGFIELD MO
300 AM CDT TUE SEP 16 2014

......SGF CWA......

CITY           SKY/WX    TMP DP  RH WIND       PRES   REMARKS
SPRINGFIELD    CLOUDY    65  58  78 NE8       30.18R
JOPLIN         CLOUDY    64  60  87 N7        30.19S
WEST PLAINS    CLOUDY    64  62  93 N7        30.17S
ROLLA          CLOUDY    60  57  89 NE6       30.18S
OSAGE BEACH    CLOUDY    59  55  88 N5        30.20S
BRANSON        CLOUDY    68  66  94 NW5       30.18R

......SURROUNDING SGF CWA......

CITY           SKY/WX    TMP DP  RH WIND       PRES   REMARKS
CHANUTE        CLOUDY    61  53  75 NE10      30.22R
PARSONS        CLOUDY    63  57  81 NE6       30.21R
COFFEYVILLE    CLOUDY    65  61  87 NE12      30.18S
EMPORIA        PTCLDY    52  50  93 NE6       30.24S
GROVE OK       CLOUDY    68  68 100 CALM      30.17S
ROGERS AR      CLOUDY    69  67  93 NW3       30.18S
SILOAM SPRINGS CLOUDY    70  64  83 S3        30.18S
HARRISON AR    CLOUDY    68  67  96 CALM      30.17S
NEAR YELLVILLE MOCLDY    66  63  88 CALM      30.15S

......KANSAS AND MISSOURI......

CITY           SKY/WX    TMP DP  RH WIND       PRES   REMARKS
KANSAS CTY INT CLEAR     48  47  96 NE5       30.26R
DOWNTOWN KC    CLEAR     52  48  86 NE5       30.26R
COLUMBIA       CLOUDY    58  55  90 N9        30.22R
SEDALIA        CLOUDY    58  53  84 N6        30.23S
ST JOSEPH      CLEAR     46  45  96 N5        30.27S
ST LOUIS       MOCLDY    59  55  87 N5        30.20S
SPIRIT OF STL  CLOUDY    59  55  87 NE8       30.18S
KIRKSVILLE     CLEAR     48  47  96 CALM      30.25S
WICHITA        CLOUDY    62  52  69 NE13      30.21F
TOPEKA         CLEAR     49  48  97 CALM      30.27S
OLATHE         CLEAR     51  50  96 N6        30.24S

......TENNESSEE......

CITY           SKY/WX    TMP DP  RH WIND       PRES   REMARKS
MEMPHIS        PTCLDY    70  65  84 CALM      30.11S
NASHVILLE      CLOUDY    65  63  93 CALM      30.10F

......ARKANSAS.......

CITY           SKY/WX    TMP DP  RH WIND       PRES   REMARKS
FAYETTEVILLE   CLOUDY    66  66 100 S5        30.17F
FT SMITH       CLEAR     68  67  96 E3        30.13F FOG
LITTLE ROCK    CLOUDY    72  67  84 N3        30.13R

......OKLAHOMA.......

CITY           SKY/WX    TMP DP  RH WIND       PRES   REMARKS
TULSA          CLOUDY    68  66  93 NW5       30.13F
PONCA CITY     CLOUDY    67  60  78 NE7       30.18S
MCALESTER      CLOUDY    67  66  97 CALM      30.14S FOG
OKLAHOMA CITY  MOCLDY    74  68  81 CALM      30.15F

......IOWA............

CITY           SKY/WX    TMP DP  RH WIND       PRES   REMARKS
DES MOINES     CLEAR     46  43  89 CALM      30.26R
QUAD CITIES    CLEAR     44  42  93 CALM      30.23S FOG

......ILLINOIS........

CITY           SKY/WX    TMP DP  RH WIND       PRES   REMARKS
QUINCY         CLEAR     48  46  93 N6        30.23R
CHICAGO        CLEAR     49  46  90 W3        30.18S




USA.gov is the U.S. government's official web portal to all federal, state and local government web resources and services.